Main page
METAR-TAF:

METAR-TAF

Airports :

Bétera-Valencia

Valencia, Spain

latitude: 39-37-26N, longitude: 0-28-26W, elevation: 127 m

Current weather observation

The report was made 26 minutes ago, at 11:00 UTC
Wind 9 kt from the West, varying between Southwest and Northwest
Temperature 14°C
Humidity 33%
Pressure 1015 hPa
Visibility 10 km or more

METAR: LEBT 221100Z AUTO 26009KT 230V320 9999 NCD 14/M02 Q1015

Time: 12:26 (11:26 UTC)


TAF: missing

Weather observations and forecasts of more than 4000 airports (METAR and TAF reports).

The available stations are represented by yellow and red dots on the map.

Hover mouse over dot to see the name of the station.

Then click to see weather observations and forecasts.

To change the map : click on the green buttons with a black cross to zoom in, on the green button with a dash to zoom out, or on the green arrows for adjacent maps.


METAR-TAF: